• în România
  • Lista ţărilor
  • Pe 7 zile
  • Temperatura apei
  • Hartă satelitară
  • Meteo pe hartă
  • Widget-uri
  • user-avatar
    Intrare

    Meteo pe oră la Eisenstadt

    Astăzi, 17 Ianuarie, Marţi

    Timp Temperatura Precipitaţii Vânt Presiune Umiditate
    00:00 -9°C° 0 mm 4 m/s 726 mmHg 93%
    01:00 -9°C° 0 mm 4 m/s 726 mmHg 93%
    02:00 -10°C° 0 mm 4 m/s 726 mmHg 92%
    03:00 -10°C° 0 mm 4 m/s 726 mmHg 92%
    04:00 -10°C° 0 mm 4 m/s 726 mmHg 92%
    05:00 -10°C° 0 mm 4 m/s 727 mmHg 92%
    06:00 -10°C° 0 mm 4 m/s 727 mmHg 92%
    07:00 -11°C° 0 mm 5 m/s 727 mmHg 92%
    08:00 -10°C° 0 mm 5 m/s 728 mmHg 91%
    09:00 -10°C° 0 mm 5 m/s 728 mmHg 90%
    10:00 -8°C° 0 mm 5 m/s 729 mmHg 89%
    11:00 -8°C° 0 mm 5 m/s 729 mmHg 88%
    12:00 -8°C° 0 mm 6 m/s 729 mmHg 86%
    13:00 -8°C° 0 mm 6 m/s 729 mmHg 85%
    14:00 -8°C° 0 mm 6 m/s 729 mmHg 87%
    15:00 -8°C° 0 mm 5 m/s 729 mmHg 88%
    16:00 -8°C° 0 mm 5 m/s 729 mmHg 89%
    17:00 -8°C° 0 mm 5 m/s 730 mmHg 90%
    18:00 -10°C° 0 mm 5 m/s 730 mmHg 91%
    19:00 -10°C° 0 mm 5 m/s 731 mmHg 91%
    20:00 -10°C° 0 mm 5 m/s 731 mmHg 91%
    21:00 -11°C° 0 mm 5 m/s 731 mmHg 92%
    22:00 -10°C° 0 mm 4 m/s 731 mmHg 92%
    23:00 -10°C° 0 mm 4 m/s 732 mmHg 92%

    Mâine, 18 Ianuarie, Miercuri

    Timp Temperatura Precipitaţii Vânt Presiune Umiditate
    00:00 -10°C° 0 mm 4 m/s 732 mmHg 92%
    01:00 -10°C° 0 mm 4 m/s 732 mmHg 92%
    02:00 -11°C° 0 mm 4 m/s 732 mmHg 92%
    03:00 -11°C° 0 mm 4 m/s 732 mmHg 92%
    04:00 -11°C° 0 mm 4 m/s 732 mmHg 92%
    05:00 -11°C° 0 mm 4 m/s 732 mmHg 92%
    06:00 -11°C° 0 mm 4 m/s 732 mmHg 92%
    07:00 -11°C° 0 mm 4 m/s 733 mmHg 92%
    08:00 -11°C° 0 mm 4 m/s 733 mmHg 90%
    09:00 -10°C° 0 mm 4 m/s 733 mmHg 89%
    10:00 -9°C° 0 mm 4 m/s 734 mmHg 88%
    11:00 -9°C° 0 mm 4 m/s 734 mmHg 87%
    12:00 -8°C° 0 mm 4 m/s 734 mmHg 86%
    13:00 -7°C° 0 mm 4 m/s 733 mmHg 84%
    14:00 -8°C° 0 mm 4 m/s 733 mmHg 86%
    15:00 -8°C° 0 mm 4 m/s 733 mmHg 88%
    16:00 -9°C° 0 mm 4 m/s 733 mmHg 89%
    17:00 -9°C° 0 mm 3 m/s 733 mmHg 90%
    18:00 -9°C° 0 mm 3 m/s 734 mmHg 92%
    19:00 -10°C° 0 mm 3 m/s 734 mmHg 93%
    20:00 -10°C° 0 mm 3 m/s 734 mmHg 93%
    21:00 -10°C° 0 mm 3 m/s 734 mmHg 93%
    22:00 -12°C° 0 mm 3 m/s 734 mmHg 94%
    23:00 -12°C° 0 mm 3 m/s 734 mmHg 93%

    Poimâine, 19 Ianuarie, Joi

    Timp Temperatura Precipitaţii Vânt Presiune Umiditate
    00:00 -12°C° 0 mm 3 m/s 734 mmHg 93%
    01:00 -12°C° 0 mm 2 m/s 734 mmHg 93%
    02:00 -12°C° 0 mm 2 m/s 734 mmHg 93%
    03:00 -12°C° 0 mm 2 m/s 734 mmHg 94%
    04:00 -13°C° 0 mm 2 m/s 734 mmHg 94%
    05:00 -13°C° 0 mm 2 m/s 734 mmHg 94%
    06:00 -14°C° 0 mm 2 m/s 734 mmHg 95%
    07:00 -14°C° 0 mm 2 m/s 734 mmHg 95%
    08:00 -10°C° 0 mm 1 m/s 734 mmHg 92%
    09:00 -9°C° 0 mm 1 m/s 735 mmHg 89%
    10:00 -7°C° 0 mm 1 m/s 735 mmHg 87%
    11:00 -6°C° 0 mm 1 m/s 735 mmHg 85%
    12:00 -4°C° 0 mm 1 m/s 735 mmHg 83%
    13:00 -3°C° 0 mm 1 m/s 735 mmHg 81%
    14:00 -6°C° 0 mm 1 m/s 734 mmHg 84%
    15:00 -7°C° 0 mm 1 m/s 734 mmHg 87%
    16:00 -8°C° 0 mm 1 m/s 734 mmHg 90%
    17:00 -10°C° 0 mm 1 m/s 734 mmHg 91%
    18:00 -11°C° 0 mm 1 m/s 734 mmHg 93%
    19:00 -13°C° 0 mm 1 m/s 734 mmHg 94%
    20:00 -12°C° 0 mm 1 m/s 734 mmHg 93%
    21:00 -12°C° 0 mm 1 m/s 734 mmHg 93%
    22:00 -12°C° 0 mm 1 m/s 734 mmHg 93%
    23:00 -12°C° 0 mm 1 m/s 734 mmHg 92%

    20 Ianuarie, Vineri

    Timp Temperatura Precipitaţii Vânt Presiune Umiditate
    00:00 -12°C° 0 mm 1 m/s 734 mmHg 91%
    01:00 -12°C° 0 mm 1 m/s 733 mmHg 90%
    02:00 -11°C° 0 mm 1 m/s 733 mmHg 89%
    03:00 -11°C° 0 mm 1 m/s 733 mmHg 88%
    04:00 -11°C° 0 mm 1 m/s 733 mmHg 87%
    05:00 -11°C° 0 mm 1 m/s 733 mmHg 87%
    06:00 -11°C° 0 mm 1 m/s 733 mmHg 87%
    07:00 -12°C° 0 mm 2 m/s 733 mmHg 87%
    08:00 -10°C° 0 mm 2 m/s 733 mmHg 85%
    09:00 -8°C° 0 mm 2 m/s 733 mmHg 84%
    10:00 -6°C° 0 mm 1 m/s 734 mmHg 82%
    11:00 -6°C° 0 mm 2 m/s 734 mmHg 81%
    12:00 -5°C° 0 mm 2 m/s 733 mmHg 81%
    13:00 -4°C° 0 mm 2 m/s 733 mmHg 81%
    14:00 -5°C° 0 mm 2 m/s 733 mmHg 84%
    15:00 -6°C° 0 mm 2 m/s 733 mmHg 87%
    16:00 -7°C° 0 mm 2 m/s 732 mmHg 90%
    17:00 -7°C° 0 mm 2 m/s 732 mmHg 91%
    18:00 -8°C° 0 mm 2 m/s 732 mmHg 92%
    19:00 -9°C° 0 mm 2 m/s 732 mmHg 93%
    20:00 -9°C° 0 mm 2 m/s 733 mmHg 93%
    21:00 -10°C° 0 mm 2 m/s 733 mmHg 93%
    22:00 -10°C° 0 mm 2 m/s 733 mmHg 94%
    23:00 -10°C° 0 mm 2 m/s 732 mmHg 94%

    21 Ianuarie, Sâmbătă

    Timp Temperatura Precipitaţii Vânt Presiune Umiditate
    00:00 -10°C° 0 mm 2 m/s 732 mmHg 94%
    01:00 -10°C° 0 mm 2 m/s 732 mmHg 94%
    02:00 -10°C° 0 mm 2 m/s 732 mmHg 94%
    03:00 -12°C° 0 mm 2 m/s 732 mmHg 95%
    04:00 -12°C° 0 mm 2 m/s 731 mmHg 95%
    05:00 -12°C° 0 mm 2 m/s 731 mmHg 95%
    06:00 -10°C° 0 mm 2 m/s 731 mmHg 95%
    07:00 -10°C° 0 mm 2 m/s 731 mmHg 96%
    08:00 -9°C° 0 mm 2 m/s 732 mmHg 94%
    09:00 -8°C° 0 mm 2 m/s 732 mmHg 92%
    10:00 -7°C° 0 mm 2 m/s 732 mmHg 89%
    11:00 -6°C° 0 mm 2 m/s 732 mmHg 88%
    12:00 -6°C° 0 mm 3 m/s 731 mmHg 87%
    13:00 -6°C° 0 mm 3 m/s 731 mmHg 85%
    14:00 -6°C° 0 mm 3 m/s 731 mmHg 87%
    15:00 -7°C° 0 mm 3 m/s 730 mmHg 89%
    16:00 -7°C° 0 mm 3 m/s 730 mmHg 91%
    17:00 -8°C° 0 mm 3 m/s 730 mmHg 92%
    18:00 -8°C° 0 mm 3 m/s 730 mmHg 94%
    19:00 -9°C° 0 mm 3 m/s 730 mmHg 95%
    20:00 -9°C° 0 mm 3 m/s 730 mmHg 95%
    21:00 -9°C° 0 mm 3 m/s 730 mmHg 95%
    22:00 -9°C° 0 mm 3 m/s 730 mmHg 95%
    23:00 -9°C° 0 mm 3 m/s 729 mmHg 96%

    22 Ianuarie, Duminică

    Timp Temperatura Precipitaţii Vânt Presiune Umiditate
    00:00 -10°C° 0 mm 3 m/s 729 mmHg 96%
    01:00 -10°C° 0 mm 3 m/s 729 mmHg 96%
    02:00 -9°C° 0 mm 2 m/s 728 mmHg 96%
    03:00 -9°C° 0 mm 2 m/s 728 mmHg 96%
    04:00 -10°C° 0 mm 2 m/s 728 mmHg 97%
    05:00 -9°C° 0 mm 2 m/s 728 mmHg 96%
    06:00 -9°C° 0 mm 2 m/s 727 mmHg 96%
    07:00 -9°C° 0 mm 2 m/s 727 mmHg 95%
    08:00 -8°C° 0 mm 2 m/s 727 mmHg 94%
    09:00 -7°C° 0 mm 2 m/s 727 mmHg 92%
    10:00 -6°C° 0 mm 2 m/s 727 mmHg 91%
    11:00 -6°C° 0 mm 3 m/s 726 mmHg 89%
    12:00 -6°C° 0 mm 3 m/s 725 mmHg 88%
    13:00 -5°C° 0 mm 3 m/s 725 mmHg 87%
    14:00 -5°C° 0 mm 3 m/s 724 mmHg 88%
    15:00 -6°C° 0 mm 3 m/s 724 mmHg 89%
    16:00 -6°C° 0 mm 3 m/s 723 mmHg 90%
    17:00 -7°C° 0 mm 3 m/s 723 mmHg 91%
    18:00 -7°C° 0 mm 3 m/s 722 mmHg 92%
    19:00 -8°C° 0 mm 3 m/s 722 mmHg 93%
    20:00 -8°C° 0 mm 3 m/s 722 mmHg 93%
    21:00 -7°C° 0 mm 2 m/s 721 mmHg 93%
    22:00 -7°C° 0 mm 2 m/s 721 mmHg 93%
    23:00 -8°C° 0 mm 3 m/s 720 mmHg 94%
    Arată mai mult